Year,Month,Day,Hour,Minute,Value (Times are PST for temperature in C)
2009,09,21,00,00,12.30
2009,09,21,00,01,12.30
2009,09,21,00,02,12.30
2009,09,21,00,03,12.30
2009,09,21,00,04,12.30
2009,09,21,00,05,12.30
2009,09,21,00,06,12.30
2009,09,21,00,07,12.30
2009,09,21,00,08,12.30
2009,09,21,00,09,12.30
2009,09,21,00,10,12.30
2009,09,21,00,11,12.30
2009,09,21,00,12,12.30
2009,09,21,00,13,12.30
2009,09,21,01,55,11.30
2009,09,21,01,56,11.30
2009,09,21,01,57,11.30
2009,09,21,01,58,11.30
2009,09,21,01,59,11.30
2009,09,21,02,00,11.30
2009,09,21,02,01,11.30
2009,09,21,02,02,11.30
2009,09,21,02,03,11.30
2009,09,21,02,04,11.30
2009,09,21,02,05,11.30
2009,09,21,02,06,11.30
2009,09,21,02,07,11.30
2009,09,21,02,08,11.30
2009,09,21,02,09,11.30
2009,09,21,02,10,11.30
2009,09,21,02,11,11.30
2009,09,21,02,12,11.30
2009,09,21,02,13,11.30
2009,09,21,02,14,11.30
2009,09,21,02,15,11.20
2009,09,21,02,16,11.30
2009,09,21,02,17,11.30
2009,09,21,02,18,11.30
2009,09,21,02,19,11.30
2009,09,21,02,20,11.40
2009,09,21,02,21,11.40
2009,09,21,02,22,11.40
2009,09,21,02,23,11.40
2009,09,21,02,24,11.40
2009,09,21,02,25,11.40
2009,09,21,02,26,11.40
2009,09,21,02,27,11.50
2009,09,21,02,28,11.60
2009,09,21,02,29,11.60
2009,09,21,02,30,11.60
2009,09,21,02,31,11.50
2009,09,21,02,32,11.40
2009,09,21,02,33,11.40
2009,09,21,02,34,11.40
2009,09,21,02,35,11.40
2009,09,21,02,36,11.30
2009,09,21,02,37,11.30
2009,09,21,02,38,11.20
2009,09,21,02,39,11.20
2009,09,21,02,40,11.10
2009,09,21,02,41,11.10
2009,09,21,02,42,11.10
2009,09,21,02,43,11.10
2009,09,21,02,44,11.10
2009,09,21,02,45,11.10
2009,09,21,02,46,10.90
2009,09,21,02,47,10.90
2009,09,21,02,48,10.90
2009,09,21,02,49,10.90
2009,09,21,02,50,10.90
2009,09,21,02,51,10.90
2009,09,21,02,52,10.90
2009,09,21,02,53,10.90
2009,09,21,02,54,10.90
2009,09,21,02,55,10.90
2009,09,21,02,56,10.90
2009,09,21,02,57,10.90
2009,09,21,02,58,10.90
2009,09,21,02,59,10.90
2009,09,21,03,00,10.90
2009,09,21,03,01,10.90
2009,09,21,03,02,10.90
2009,09,21,03,03,10.90
2009,09,21,03,04,10.90
2009,09,21,03,05,10.90
2009,09,21,03,06,10.80
2009,09,21,03,07,10.80
2009,09,21,03,08,10.80
2009,09,21,03,09,10.80
2009,09,21,03,10,10.70
2009,09,21,03,11,10.70
2009,09,21,03,12,10.70
2009,09,21,03,13,10.70
2009,09,21,03,14,10.70
2009,09,21,03,15,10.70
2009,09,21,03,16,10.70
2009,09,21,03,17,10.60
2009,09,21,03,18,10.60
2009,09,21,03,19,10.60
2009,09,21,03,20,10.60
2009,09,21,03,21,10.60
2009,09,21,03,22,10.60
2009,09,21,03,23,10.60
2009,09,21,03,24,10.50
2009,09,21,03,25,10.40
2009,09,21,03,26,10.40
2009,09,21,03,27,10.40
2009,09,21,03,28,10.40
2009,09,21,03,29,10.50
2009,09,21,03,30,10.60
2009,09,21,03,31,10.60
2009,09,21,03,32,10.60
2009,09,21,03,33,10.60
2009,09,21,03,34,10.60
2009,09,21,03,35,10.60
2009,09,21,03,36,10.60
2009,09,21,03,37,10.60
2009,09,21,03,38,10.70
2009,09,21,03,39,10.70
2009,09,21,03,40,10.70
2009,09,21,03,41,10.80
2009,09,21,03,42,10.80
2009,09,21,03,43,10.80
2009,09,21,03,44,10.80
2009,09,21,03,45,10.90
2009,09,21,03,46,10.80
2009,09,21,03,47,10.80
2009,09,21,03,48,10.80
2009,09,21,03,49,10.80
2009,09,21,03,50,10.70
2009,09,21,03,51,10.70
2009,09,21,03,52,10.60
2009,09,21,03,53,10.60
2009,09,21,03,54,10.60
2009,09,21,03,55,10.60
2009,09,21,03,56,10.60
2009,09,21,03,57,10.60
2009,09,21,03,58,10.60
2009,09,21,03,59,10.60
2009,09,21,04,00,10.60
2009,09,21,04,01,10.60
2009,09,21,04,02,10.60
2009,09,21,04,03,10.60
2009,09,21,04,04,10.60
2009,09,21,04,05,10.60
2009,09,21,04,06,10.60
2009,09,21,04,07,10.60
2009,09,21,04,08,10.60
2009,09,21,04,09,10.60
2009,09,21,04,10,10.60
2009,09,21,04,11,10.60
2009,09,21,04,12,10.60
2009,09,21,04,13,10.50
2009,09,21,04,14,10.40
2009,09,21,04,15,10.40
2009,09,21,04,16,10.40
2009,09,21,04,17,10.40
2009,09,21,04,18,10.40
2009,09,21,04,19,10.40
2009,09,21,04,20,10.40
2009,09,21,04,21,10.40
2009,09,21,04,22,10.40
2009,09,21,04,23,10.40
2009,09,21,04,24,10.40
2009,09,21,04,25,10.40
2009,09,21,04,26,10.40
2009,09,21,04,27,10.40
2009,09,21,04,28,10.40
2009,09,21,04,29,10.40
2009,09,21,04,30,10.40
2009,09,21,04,31,10.40
2009,09,21,04,32,10.40
2009,09,21,04,33,10.40
2009,09,21,04,34,10.60
2009,09,21,04,35,10.60
2009,09,21,04,36,10.60
2009,09,21,04,37,10.60
2009,09,21,04,38,10.60
2009,09,21,04,39,10.50
2009,09,21,04,40,10.40
2009,09,21,04,41,10.40
2009,09,21,04,42,10.40
2009,09,21,04,43,10.40
2009,09,21,04,44,10.40
2009,09,21,04,45,10.40
2009,09,21,04,46,10.40
2009,09,21,04,47,10.40
2009,09,21,04,48,10.40
2009,09,21,04,49,10.40
2009,09,21,04,50,10.40
2009,09,21,04,51,10.40
2009,09,21,04,52,10.40
2009,09,21,04,53,10.40
2009,09,21,04,54,10.50
2009,09,21,04,55,10.60
2009,09,21,04,56,10.60
2009,09,21,04,57,10.60
2009,09,21,04,58,10.60
2009,09,21,04,59,10.60
2009,09,21,05,00,10.40
2009,09,21,05,01,10.40
2009,09,21,05,02,10.40
2009,09,21,05,03,10.40
2009,09,21,05,04,10.40
2009,09,21,05,05,10.40
2009,09,21,05,06,10.40
2009,09,21,05,07,10.40
2009,09,21,05,08,10.40
2009,09,21,05,09,10.40
2009,09,21,05,10,10.40
2009,09,21,05,11,10.40
2009,09,21,05,12,10.40
2009,09,21,05,13,10.50
2009,09,21,05,14,10.60
2009,09,21,05,15,10.60
2009,09,21,05,16,10.60
2009,09,21,05,17,10.60
2009,09,21,05,18,10.60
2009,09,21,05,19,10.60
2009,09,21,05,20,10.40
2009,09,21,05,21,10.40
2009,09,21,05,22,10.40
2009,09,21,05,23,10.40
2009,09,21,05,24,10.40
2009,09,21,05,25,10.40
2009,09,21,05,26,10.40
2009,09,21,05,27,10.40
2009,09,21,05,28,10.40
2009,09,21,05,29,10.40
2009,09,21,05,30,10.40
2009,09,21,05,31,10.40
2009,09,21,05,32,10.40
2009,09,21,05,33,10.40
2009,09,21,05,34,10.40
2009,09,21,05,35,10.40
2009,09,21,05,36,10.40
2009,09,21,05,37,10.40
2009,09,21,05,38,10.30
2009,09,21,05,39,10.30
2009,09,21,05,40,10.30
2009,09,21,05,41,10.30
2009,09,21,05,42,10.30
2009,09,21,05,43,10.30
2009,09,21,05,44,10.30
2009,09,21,05,45,10.30
2009,09,21,05,46,10.30
2009,09,21,05,47,10.40
2009,09,21,05,48,10.40
2009,09,21,05,49,10.40
2009,09,21,05,50,10.40
2009,09,21,05,51,10.50
2009,09,21,05,52,10.60
2009,09,21,05,53,10.60
2009,09,21,05,54,10.60
2009,09,21,05,55,10.70
2009,09,21,05,56,10.70
2009,09,21,05,57,10.80
2009,09,21,05,58,10.80
2009,09,21,05,59,10.80
2009,09,21,06,00,10.70
2009,09,21,06,01,10.70
2009,09,21,06,02,10.60
2009,09,21,06,03,10.60
2009,09,21,06,04,10.60
2009,09,21,06,05,10.60
2009,09,21,06,06,10.60
2009,09,21,06,07,10.60
2009,09,21,06,08,10.60
2009,09,21,06,09,10.60
2009,09,21,06,10,10.60
2009,09,21,06,11,10.60
2009,09,21,06,12,10.60
2009,09,21,06,13,10.60
2009,09,21,06,14,10.60
2009,09,21,06,15,10.60
2009,09,21,06,16,10.60
2009,09,21,06,17,10.60
2009,09,21,06,18,10.60
2009,09,21,06,19,10.60
2009,09,21,06,20,10.50
2009,09,21,06,21,10.40
2009,09,21,06,22,10.40
2009,09,21,06,23,10.40
2009,09,21,06,24,10.40
2009,09,21,06,25,10.40
2009,09,21,06,26,10.40
2009,09,21,06,27,10.40
2009,09,21,06,28,10.40
2009,09,21,06,29,10.40
2009,09,21,06,30,10.40
2009,09,21,06,31,10.40
2009,09,21,06,32,10.40
2009,09,21,06,33,10.40
2009,09,21,06,34,10.40
2009,09,21,06,35,10.40
2009,09,21,06,36,10.40
2009,09,21,06,37,10.40
2009,09,21,06,38,10.40
2009,09,21,06,39,10.40
2009,09,21,06,40,10.40
2009,09,21,06,41,10.40
2009,09,21,06,42,10.40
2009,09,21,06,43,10.40
2009,09,21,06,44,10.40
2009,09,21,06,45,10.40
2009,09,21,06,46,10.40
2009,09,21,06,47,10.40
2009,09,21,06,48,10.40
2009,09,21,06,49,10.40
2009,09,21,06,50,10.40
2009,09,21,06,51,10.40
2009,09,21,06,52,10.40
2009,09,21,06,53,10.40
2009,09,21,06,54,10.40
2009,09,21,06,55,10.60
2009,09,21,06,56,10.60
2009,09,21,06,57,10.60
2009,09,21,06,58,10.60
2009,09,21,06,59,10.60
2009,09,21,07,00,10.60
2009,09,21,07,01,10.70
2009,09,21,07,02,10.70
2009,09,21,07,03,10.70
2009,09,21,07,04,10.70
2009,09,21,07,05,10.70
2009,09,21,07,06,10.70
2009,09,21,07,07,10.70
2009,09,21,07,08,10.70
2009,09,21,07,09,10.70
2009,09,21,07,10,10.70
2009,09,21,07,11,10.70
2009,09,21,07,12,10.70
2009,09,21,07,13,10.70
2009,09,21,07,14,10.60
2009,09,21,07,15,10.60
2009,09,21,07,16,10.60
2009,09,21,07,17,10.60
2009,09,21,07,18,10.60
2009,09,21,07,19,10.60
2009,09,21,07,20,10.60
2009,09,21,07,21,10.70
2009,09,21,07,22,10.70
2009,09,21,07,23,10.70
2009,09,21,07,24,10.70
2009,09,21,07,25,10.70
2009,09,21,07,26,10.70
2009,09,21,07,27,10.70
2009,09,21,07,28,10.70
2009,09,21,07,29,10.70
2009,09,21,07,30,10.70
2009,09,21,07,31,10.70
2009,09,21,07,32,10.70
2009,09,21,07,33,10.70
2009,09,21,07,34,10.70
2009,09,21,07,35,10.70
2009,09,21,07,36,10.70
2009,09,21,07,37,10.70
2009,09,21,07,38,10.80
2009,09,21,07,39,10.80
2009,09,21,07,40,10.90
2009,09,21,07,41,10.90
2009,09,21,07,42,10.90
2009,09,21,07,43,10.90
2009,09,21,07,44,11.00
2009,09,21,07,45,11.10
2009,09,21,07,46,11.10
2009,09,21,07,47,11.10
2009,09,21,07,48,11.20
2009,09,21,07,49,11.20
2009,09,21,07,50,11.20
2009,09,21,07,51,11.30
2009,09,21,07,52,11.30
2009,09,21,07,53,11.40
2009,09,21,07,54,11.40
2009,09,21,07,55,11.40
2009,09,21,07,56,11.50
2009,09,21,07,57,11.60
2009,09,21,07,58,11.60
2009,09,21,07,59,11.60
2009,09,21,08,00,11.60
2009,09,21,08,01,11.60
2009,09,21,08,02,11.70
2009,09,21,08,03,11.70
2009,09,21,08,04,11.80
2009,09,21,08,05,11.80
2009,09,21,08,06,11.80
2009,09,21,08,07,11.90
2009,09,21,08,08,11.90
2009,09,21,08,09,12.00
2009,09,21,08,10,12.00
2009,09,21,08,11,12.00
2009,09,21,08,12,12.10
2009,09,21,08,13,12.10
2009,09,21,08,14,12.20
2009,09,21,08,15,12.20
2009,09,21,08,16,12.20
2009,09,21,08,17,12.30
2009,09,21,08,18,12.30
2009,09,21,08,19,12.30
2009,09,21,08,20,12.30
2009,09,21,08,21,12.40
2009,09,21,08,22,12.40
2009,09,21,08,23,12.40
2009,09,21,08,24,12.50
2009,09,21,08,25,12.50
2009,09,21,08,26,12.60
2009,09,21,08,27,12.70
2009,09,21,08,28,12.70
2009,09,21,08,29,12.80
2009,09,21,08,30,12.80
2009,09,21,08,31,12.90
2009,09,21,08,32,12.90
2009,09,21,08,33,13.00
2009,09,21,08,34,13.00
2009,09,21,08,35,13.10
2009,09,21,08,36,13.10
2009,09,21,08,37,13.10
2009,09,21,08,38,13.20
2009,09,21,08,39,13.20
2009,09,21,08,40,13.30
2009,09,21,08,41,13.30
2009,09,21,08,42,13.30
2009,09,21,08,43,13.30
2009,09,21,08,44,13.30
2009,09,21,08,45,13.30
2009,09,21,08,46,13.30
2009,09,21,08,47,13.40
2009,09,21,08,48,13.40
2009,09,21,08,49,13.40
2009,09,21,08,50,13.50
2009,09,21,08,51,13.50
2009,09,21,08,52,13.50
2009,09,21,08,53,13.50
2009,09,21,08,54,13.60
2009,09,21,08,55,13.60
2009,09,21,08,56,13.60
2009,09,21,08,57,13.60
2009,09,21,08,58,13.60
2009,09,21,08,59,13.70
2009,09,21,09,00,13.70
2009,09,21,09,01,13.70
2009,09,21,09,02,13.70
2009,09,21,09,03,13.70
2009,09,21,09,04,13.70
2009,09,21,09,05,13.70
2009,09,21,09,06,13.70
2009,09,21,09,07,13.70
2009,09,21,09,08,13.70
2009,09,21,09,09,13.70
2009,09,21,09,10,13.70
2009,09,21,09,11,13.70
2009,09,21,09,12,13.70
2009,09,21,09,13,13.70
2009,09,21,09,14,13.70
2009,09,21,09,15,13.70
2009,09,21,09,16,13.70
2009,09,21,09,17,13.70
2009,09,21,09,18,13.70
2009,09,21,09,19,13.70
2009,09,21,09,20,13.70
2009,09,21,09,21,13.70
2009,09,21,09,22,13.70
2009,09,21,09,23,13.70
2009,09,21,09,24,13.70
2009,09,21,09,25,13.70
2009,09,21,09,26,13.80
2009,09,21,09,27,13.80
2009,09,21,09,28,13.80
2009,09,21,09,29,13.80
2009,09,21,09,30,13.80
2009,09,21,09,31,13.80
2009,09,21,09,32,13.80
2009,09,21,09,33,13.80
2009,09,21,09,34,13.90
2009,09,21,09,35,13.90
2009,09,21,09,36,13.90
2009,09,21,09,37,13.90
2009,09,21,09,38,13.90
2009,09,21,09,39,13.90
2009,09,21,09,40,13.90
2009,09,21,09,41,14.00
2009,09,21,09,42,14.00
2009,09,21,09,43,14.10
2009,09,21,09,44,14.10
2009,09,21,09,45,14.10
2009,09,21,09,46,14.10
2009,09,21,09,47,14.20
2009,09,21,09,48,14.20
2009,09,21,09,49,14.20
2009,09,21,09,50,14.20
2009,09,21,09,51,14.20
2009,09,21,09,52,14.20
2009,09,21,09,53,14.20
2009,09,21,09,54,14.30
2009,09,21,09,55,14.30
2009,09,21,09,56,14.40
2009,09,21,09,57,14.40
2009,09,21,09,58,14.50
2009,09,21,09,59,14.50
2009,09,21,10,00,14.60
2009,09,21,10,01,14.60
2009,09,21,10,02,14.60
2009,09,21,10,03,14.60
2009,09,21,10,04,14.60
2009,09,21,10,05,14.60
2009,09,21,10,06,14.60
2009,09,21,10,07,14.60
2009,09,21,10,08,14.60
2009,09,21,10,09,14.60
2009,09,21,10,10,14.70
2009,09,21,10,11,14.70
2009,09,21,10,12,14.70
2009,09,21,10,13,14.80
2009,09,21,10,14,14.80
2009,09,21,10,15,14.80
2009,09,21,10,16,14.90
2009,09,21,10,17,14.90
2009,09,21,10,18,14.90
2009,09,21,10,19,15.00
2009,09,21,10,20,15.00
2009,09,21,10,21,15.00
2009,09,21,10,22,15.00
2009,09,21,10,23,15.00
2009,09,21,10,24,15.10
2009,09,21,10,25,15.10
2009,09,21,10,26,15.10
2009,09,21,10,27,15.10
2009,09,21,10,28,15.20
2009,09,21,10,29,15.20
2009,09,21,10,30,15.30
2009,09,21,10,31,15.30
2009,09,21,10,32,15.40
2009,09,21,10,33,15.40
2009,09,21,10,34,15.40
2009,09,21,10,35,15.50
2009,09,21,10,36,15.40
2009,09,21,10,37,15.40
2009,09,21,10,38,15.40
2009,09,21,10,39,15.40
2009,09,21,10,40,15.40
2009,09,21,10,41,15.40
2009,09,21,10,42,15.40
2009,09,21,10,43,15.30
2009,09,21,10,44,15.30
2009,09,21,10,45,15.30
2009,09,21,10,46,15.40
2009,09,21,10,47,15.40
2009,09,21,10,48,15.50
2009,09,21,10,49,15.50
2009,09,21,10,50,15.60
2009,09,21,10,51,15.60
2009,09,21,10,52,15.60
2009,09,21,10,53,15.60
2009,09,21,10,54,15.60
2009,09,21,10,55,15.50
2009,09,21,10,56,15.50
2009,09,21,10,57,15.50
2009,09,21,10,58,15.50
2009,09,21,10,59,15.60
2009,09,21,11,00,15.60
2009,09,21,11,01,15.60
2009,09,21,11,02,15.60
2009,09,21,11,03,15.60
2009,09,21,11,04,15.60
2009,09,21,11,05,15.70
2009,09,21,11,06,15.60
2009,09,21,11,07,15.60
2009,09,21,11,08,15.70
2009,09,21,11,09,15.80
2009,09,21,11,10,15.80
2009,09,21,11,11,15.80
2009,09,21,11,12,15.80
2009,09,21,11,13,15.80
2009,09,21,11,14,15.90
2009,09,21,11,15,15.90
2009,09,21,11,16,16.00
2009,09,21,11,17,16.00
2009,09,21,11,18,15.90
2009,09,21,11,19,15.90
2009,09,21,11,20,16.00
2009,09,21,11,21,16.10
2009,09,21,11,22,16.10
2009,09,21,11,23,16.20
2009,09,21,11,24,16.20
2009,09,21,11,25,16.10
2009,09,21,11,26,16.10
2009,09,21,11,27,16.10
2009,09,21,11,28,16.10
2009,09,21,11,29,16.10
2009,09,21,11,30,16.10
2009,09,21,11,31,16.10
2009,09,21,11,32,16.10
2009,09,21,11,33,16.10
2009,09,21,11,34,16.10
2009,09,21,11,35,16.10
2009,09,21,11,36,16.10
2009,09,21,11,37,16.10
2009,09,21,11,38,16.20
2009,09,21,11,39,16.30
2009,09,21,11,40,16.30
2009,09,21,11,41,16.30
2009,09,21,11,42,16.30
2009,09,21,11,43,16.30
2009,09,21,11,44,16.20
2009,09,21,11,45,16.20
2009,09,21,11,46,16.20
2009,09,21,11,47,16.20
2009,09,21,11,48,16.30
2009,09,21,11,49,16.40
2009,09,21,11,50,16.40
2009,09,21,11,51,16.40
2009,09,21,11,52,16.40
2009,09,21,11,53,16.40
2009,09,21,11,54,16.40
2009,09,21,11,55,16.30
2009,09,21,11,56,16.30
2009,09,21,11,57,16.30
2009,09,21,11,58,16.20
2009,09,21,11,59,16.30
2009,09,21,12,00,16.30
2009,09,21,12,01,16.40
2009,09,21,12,02,16.40
2009,09,21,12,03,16.50
2009,09,21,12,04,16.50
2009,09,21,12,05,16.50
2009,09,21,12,06,16.60
2009,09,21,12,07,16.60
2009,09,21,12,08,16.60
2009,09,21,12,09,16.60
2009,09,21,12,10,16.60
2009,09,21,12,11,16.60
2009,09,21,12,12,16.60
2009,09,21,12,13,16.70
2009,09,21,12,14,16.80
2009,09,21,12,15,16.80
2009,09,21,12,16,16.80
2009,09,21,12,17,16.80
2009,09,21,12,18,16.80
2009,09,21,12,19,16.80
2009,09,21,12,20,16.70
2009,09,21,12,21,16.70
2009,09,21,12,22,16.70
2009,09,21,12,23,16.70
2009,09,21,12,24,16.70
2009,09,21,12,25,16.70
2009,09,21,12,26,16.80
2009,09,21,12,27,16.90
2009,09,21,12,28,16.90
2009,09,21,12,29,17.00
2009,09,21,12,30,17.10
2009,09,21,12,31,17.20
2009,09,21,12,32,17.30
2009,09,21,12,33,17.40
2009,09,21,12,34,17.50
2009,09,21,12,35,17.50
2009,09,21,12,36,17.50
2009,09,21,12,37,17.50
2009,09,21,12,38,17.40
2009,09,21,12,39,17.40
2009,09,21,12,40,17.40
2009,09,21,12,41,17.40
2009,09,21,12,42,17.30
2009,09,21,12,43,17.30
2009,09,21,12,44,17.40
2009,09,21,12,45,17.40
2009,09,21,12,46,17.40
2009,09,21,12,47,17.40
2009,09,21,12,48,17.40
2009,09,21,12,49,17.40
2009,09,21,12,50,17.40
2009,09,21,12,51,17.40
2009,09,21,12,52,17.40
2009,09,21,12,53,17.50
2009,09,21,12,54,17.40
2009,09,21,12,55,17.40
2009,09,21,12,56,17.30
2009,09,21,12,57,17.30
2009,09,21,12,58,17.30
2009,09,21,12,59,17.30
2009,09,21,13,00,17.30
2009,09,21,13,01,17.30
2009,09,21,13,02,17.30
2009,09,21,13,03,17.30
2009,09,21,13,04,17.40
2009,09,21,13,05,17.30
2009,09,21,13,06,17.30
2009,09,21,13,07,17.30
2009,09,21,13,08,17.30
2009,09,21,13,09,17.40
2009,09,21,13,10,17.50
2009,09,21,13,11,17.70
2009,09,21,13,12,17.80
2009,09,21,13,13,17.90
2009,09,21,13,14,17.90
2009,09,21,13,15,17.90
2009,09,21,13,16,17.80
2009,09,21,13,17,17.90
2009,09,21,13,18,17.90
2009,09,21,13,19,17.90
2009,09,21,13,20,17.90
2009,09,21,13,21,17.90
2009,09,21,13,22,17.90
2009,09,21,13,23,17.90
2009,09,21,13,24,18.00
2009,09,21,13,25,18.10
2009,09,21,13,26,18.10
2009,09,21,13,27,18.10
2009,09,21,13,28,18.10
2009,09,21,13,29,18.10
2009,09,21,13,30,18.20
2009,09,21,13,31,18.20
2009,09,21,13,32,18.20
2009,09,21,13,33,18.20
2009,09,21,13,34,18.20
2009,09,21,13,35,18.20
2009,09,21,13,36,18.20
2009,09,21,13,37,18.20
2009,09,21,13,38,18.20
2009,09,21,13,39,18.20
2009,09,21,13,40,18.20
2009,09,21,13,41,18.10
2009,09,21,13,42,18.10
2009,09,21,13,43,18.10
2009,09,21,13,44,18.10
2009,09,21,13,45,18.10
2009,09,21,13,46,18.10
2009,09,21,13,47,18.10
2009,09,21,13,48,18.10
2009,09,21,13,49,18.20
2009,09,21,13,50,18.20
2009,09,21,13,51,18.20
2009,09,21,13,52,18.20
2009,09,21,13,53,18.20
2009,09,21,13,54,18.20
2009,09,21,13,55,18.20
2009,09,21,13,56,18.20
2009,09,21,13,57,18.30
2009,09,21,13,58,18.30
2009,09,21,13,59,18.20
2009,09,21,14,00,18.30
2009,09,21,14,01,18.30
2009,09,21,14,02,18.20
2009,09,21,14,03,18.20
2009,09,21,14,04,18.20
2009,09,21,14,05,18.20
2009,09,21,14,06,18.20
2009,09,21,14,07,18.30
2009,09,21,14,08,18.30
2009,09,21,14,09,18.30
2009,09,21,14,10,18.30
2009,09,21,14,11,18.30
2009,09,21,14,12,18.30
2009,09,21,14,13,18.30
2009,09,21,14,14,18.40
2009,09,21,14,15,18.40
2009,09,21,14,16,18.40
2009,09,21,14,17,18.40
2009,09,21,14,18,18.40
2009,09,21,14,19,18.40
2009,09,21,14,20,18.50
2009,09,21,14,21,18.50
2009,09,21,14,22,18.50
2009,09,21,14,23,18.40
2009,09,21,14,24,18.40
2009,09,21,14,25,18.40
2009,09,21,14,26,18.40
2009,09,21,14,27,18.40
2009,09,21,14,28,18.40
2009,09,21,14,29,18.40
2009,09,21,14,30,18.40
2009,09,21,14,31,18.40
2009,09,21,14,32,18.40
2009,09,21,14,33,18.50
2009,09,21,14,34,18.50
2009,09,21,14,35,18.60
2009,09,21,14,36,18.70
2009,09,21,14,37,18.70
2009,09,21,14,38,18.70
2009,09,21,14,39,18.70
2009,09,21,14,40,18.70
2009,09,21,14,41,18.70
2009,09,21,14,42,18.70
2009,09,21,14,43,18.60
2009,09,21,14,44,18.50
2009,09,21,14,45,18.40
2009,09,21,14,46,18.40
2009,09,21,14,47,18.40
2009,09,21,14,48,18.30
2009,09,21,14,49,18.40
2009,09,21,14,50,18.40
2009,09,21,14,51,18.40
2009,09,21,14,52,18.30
2009,09,21,14,53,18.30
2009,09,21,14,54,18.30
2009,09,21,14,55,18.30
2009,09,21,14,56,18.20
2009,09,21,14,57,18.20
2009,09,21,14,58,18.20
2009,09,21,14,59,18.30
2009,09,21,15,00,18.30
2009,09,21,15,01,18.40
2009,09,21,15,02,18.40
2009,09,21,15,03,18.40
2009,09,21,15,04,18.30
2009,09,21,15,05,18.40
2009,09,21,15,06,18.40
2009,09,21,15,07,18.50
2009,09,21,15,08,18.50
2009,09,21,15,09,18.50
2009,09,21,15,10,18.60
2009,09,21,15,11,18.60
2009,09,21,15,12,18.60
2009,09,21,15,13,18.60
2009,09,21,15,14,18.60
2009,09,21,15,15,18.70
2009,09,21,15,16,18.80
2009,09,21,15,17,18.90
2009,09,21,15,18,18.90
2009,09,21,15,19,18.90
2009,09,21,15,20,18.90
2009,09,21,15,21,18.90
2009,09,21,15,22,18.80
2009,09,21,15,23,18.80
2009,09,21,15,24,18.80
2009,09,21,15,25,18.80
2009,09,21,15,26,18.80
2009,09,21,15,27,18.80
2009,09,21,15,28,18.80
2009,09,21,15,29,18.90
2009,09,21,15,30,18.90
2009,09,21,15,31,18.90
2009,09,21,15,32,18.90
2009,09,21,15,33,18.90
2009,09,21,15,34,18.90
2009,09,21,15,35,18.90
2009,09,21,15,36,18.90
2009,09,21,15,37,18.90
2009,09,21,15,38,18.90
2009,09,21,15,39,18.80
2009,09,21,15,40,18.80
2009,09,21,15,41,18.80
2009,09,21,15,42,18.80
2009,09,21,15,43,18.80
2009,09,21,15,44,18.80
2009,09,21,15,45,18.80
2009,09,21,15,46,18.80
2009,09,21,15,47,18.80
2009,09,21,15,48,18.80
2009,09,21,15,49,18.80
2009,09,21,15,50,18.90
2009,09,21,15,51,18.90
2009,09,21,15,52,18.80
2009,09,21,15,53,18.80
2009,09,21,15,54,18.80
2009,09,21,15,55,18.80
2009,09,21,15,56,18.80
2009,09,21,15,57,18.80
2009,09,21,15,58,18.80
2009,09,21,15,59,18.80
2009,09,21,16,00,18.80
2009,09,21,16,01,18.90
2009,09,21,16,02,18.90
2009,09,21,16,03,19.00
2009,09,21,16,04,19.10
2009,09,21,16,05,19.10
2009,09,21,16,06,19.10
2009,09,21,16,07,19.10
2009,09,21,16,08,19.10
2009,09,21,16,09,19.10
2009,09,21,16,10,19.10
2009,09,21,16,11,19.10
2009,09,21,16,12,19.10
2009,09,21,16,13,19.10
2009,09,21,16,14,19.10
2009,09,21,16,15,19.00
2009,09,21,16,16,18.90
2009,09,21,16,17,18.90
2009,09,21,16,18,19.00
2009,09,21,16,19,19.10
2009,09,21,16,20,19.10
2009,09,21,16,21,19.10
2009,09,21,16,22,19.10
2009,09,21,16,23,19.10
2009,09,21,16,24,19.10
2009,09,21,16,25,19.20
2009,09,21,16,26,19.20
2009,09,21,16,27,19.20
2009,09,21,16,28,19.20
2009,09,21,16,29,19.20
2009,09,21,16,30,19.10
2009,09,21,16,31,19.10
2009,09,21,16,32,19.10
2009,09,21,16,33,19.10
2009,09,21,16,34,19.10
2009,09,21,16,35,19.10
2009,09,21,16,36,19.10
2009,09,21,16,37,19.20
2009,09,21,16,38,19.20
2009,09,21,16,39,19.20
2009,09,21,16,40,19.10
2009,09,21,16,41,19.10
2009,09,21,16,42,19.10
2009,09,21,16,43,19.10
2009,09,21,16,44,19.10
2009,09,21,16,45,19.10
2009,09,21,16,46,19.10
2009,09,21,16,47,19.10
2009,09,21,16,48,19.10
2009,09,21,16,49,19.10
2009,09,21,16,50,19.10
2009,09,21,16,51,19.10
2009,09,21,16,52,19.10
2009,09,21,16,53,19.10
2009,09,21,16,54,19.20
2009,09,21,16,55,19.20
2009,09,21,16,56,19.20
2009,09,21,16,57,19.20
2009,09,21,16,58,19.30
2009,09,21,16,59,19.30
2009,09,21,17,00,19.30
2009,09,21,17,01,19.30
2009,09,21,17,02,19.40
2009,09,21,17,03,19.40
2009,09,21,17,04,19.40
2009,09,21,17,05,19.30
2009,09,21,17,06,19.30
2009,09,21,17,07,19.20
2009,09,21,17,08,19.20
2009,09,21,17,09,19.20
2009,09,21,17,10,19.20
2009,09,21,17,11,19.20
2009,09,21,17,12,19.20
2009,09,21,17,13,19.20
2009,09,21,17,14,19.20
2009,09,21,17,15,19.20
2009,09,21,17,16,19.10
2009,09,21,17,17,19.10
2009,09,21,17,18,19.10
2009,09,21,17,19,19.10
2009,09,21,17,20,19.10
2009,09,21,17,21,19.10
2009,09,21,17,22,19.10
2009,09,21,17,23,18.90
2009,09,21,17,24,18.90
2009,09,21,17,25,18.90
2009,09,21,17,26,18.90
2009,09,21,17,27,18.80
2009,09,21,17,28,18.80
2009,09,21,17,29,18.80
2009,09,21,17,30,18.80
2009,09,21,17,31,18.80
2009,09,21,17,32,18.80
2009,09,21,17,33,18.80
2009,09,21,17,34,18.80
2009,09,21,17,35,18.80
2009,09,21,17,36,18.70
2009,09,21,17,37,18.70
2009,09,21,17,38,18.70
2009,09,21,17,39,18.70
2009,09,21,17,40,18.70
2009,09,21,17,41,18.70
2009,09,21,17,42,18.80
2009,09,21,17,43,18.80
2009,09,21,17,44,18.80
2009,09,21,17,45,18.80
2009,09,21,17,46,18.80
2009,09,21,17,47,18.80
2009,09,21,17,48,18.90
2009,09,21,17,49,18.90
2009,09,21,17,50,18.90
2009,09,21,17,51,18.90
2009,09,21,17,52,18.90
2009,09,21,17,53,18.90
2009,09,21,17,54,18.90
2009,09,21,17,55,18.90
2009,09,21,17,56,18.90
2009,09,21,17,57,18.90
2009,09,21,17,58,18.90
2009,09,21,17,59,19.00
2009,09,21,18,00,19.10
2009,09,21,18,01,19.10
2009,09,21,18,02,19.10
2009,09,21,18,03,19.10
2009,09,21,18,04,19.10
2009,09,21,18,05,19.10
2009,09,21,18,06,19.10
2009,09,21,18,07,19.00
2009,09,21,18,08,18.90
2009,09,21,18,09,18.90
2009,09,21,18,10,18.90
2009,09,21,18,11,18.90
2009,09,21,18,12,18.90
2009,09,21,18,13,18.90
2009,09,21,18,14,18.90
2009,09,21,18,15,18.90
2009,09,21,18,16,18.90
2009,09,21,18,17,18.90
2009,09,21,18,18,18.80
2009,09,21,18,19,18.80
2009,09,21,18,20,18.80
2009,09,21,18,21,18.70
2009,09,21,18,22,18.70
2009,09,21,18,23,18.70
2009,09,21,18,24,18.70
2009,09,21,18,25,18.70
2009,09,21,18,26,18.70
2009,09,21,18,27,18.70
2009,09,21,18,28,18.70
2009,09,21,18,29,18.70
2009,09,21,18,30,18.70
2009,09,21,18,31,18.70
2009,09,21,18,32,18.70
2009,09,21,18,33,18.70
2009,09,21,18,34,18.70
2009,09,21,18,35,18.60
2009,09,21,18,36,18.60
2009,09,21,18,37,18.60
2009,09,21,18,38,18.60
2009,09,21,18,39,18.60
2009,09,21,18,40,18.60
2009,09,21,18,41,18.60
2009,09,21,18,42,18.60
2009,09,21,18,43,18.60
2009,09,21,18,44,18.60
2009,09,21,18,45,18.60
2009,09,21,18,46,18.50
2009,09,21,18,47,18.50
2009,09,21,18,48,18.50
2009,09,21,18,49,18.50
2009,09,21,18,50,18.40
2009,09,21,18,51,18.40
2009,09,21,18,52,18.40
2009,09,21,18,53,18.40
2009,09,21,18,54,18.40
2009,09,21,18,55,18.40
2009,09,21,18,56,18.30
2009,09,21,18,57,18.30
2009,09,21,18,58,18.30
2009,09,21,18,59,18.30
2009,09,21,19,00,18.20